Weather History for KSBM - April, 2014

Change the Weather History Date:

Saturday, April 5, 2014

  Actual Average Record
Temperature  
Mean Temperature 37 °F -  
Max Temperature 48 °F 47 °F 79 °F (1991)
Min Temperature 28 °F 32 °F 18 °F (2003)
Degree Days  
Heating Degree Days 28    
Moisture  
Dew Point 26 °F    
Average Humidity 70    
Maximum Humidity 89    
Minimum Humidity 44    
Precipitation  
Precipitation 0.00 in - - ()
Sea Level Pressure  
Sea Level Pressure 30.12 in    
Wind  
Wind Speed 10 mph (WSW)    
Max Wind Speed 14 mph    
Max Gust Speed 23 mph    
Visibility 10 miles    
Events      
Averages and records for this station are not official NWS values.
T = Trace of Precipitation, MM = Missing Value Source: NWS Daily Summary

Daily Weather History Graph

Daily Weather History Graph

Search for Another Location

Airport or City:

Trip Planner

Search our weather history database for the weather conditions in past years. The results will help you decide how hot, cold, wet, or windy it might be!

Date:

Astronomy

Apr. 05, 2014 Rise Set
Actual Time 6:25 AM CDT 7:23 PM CDT
Civil Twilight 5:56 AM CDT 7:52 PM CDT
Nautical Twilight 5:21 AM CDT 8:27 PM CDT
Astronomical Twilight 4:45 AM CDT 9:04 PM CDT
Moon 10:26 AM CDT (4/5) 12:39 AM CDT (4/5)
Length of Visible Light 13h 55m
Length of Day
12h 57m
Waxing Crescent, 34% of the Moon is Illuminated
Apr 5
Waxing Crescent
Apr 7
First Quarter
Apr 15
Full
Apr 22
Last Quarter
Apr 29
New

Hourly Weather History & Observations

Time (CDT) Temp. Windchill Dew Point Humidity Pressure Visibility Wind Dir Wind Speed Gust Speed Precip Events Conditions
12:53 AM 32.0 °F 22.5 °F 25.0 °F 75% 29.97 in 10.0 mi NW 12.7 mph 23.0 mph N/A   Overcast
1:53 AM 32.0 °F 22.1 °F 25.0 °F 75% 30.00 in 10.0 mi WNW 13.8 mph 21.9 mph N/A   Mostly Cloudy
2:53 AM 30.0 °F 21.7 °F 24.1 °F 79% 30.02 in 10.0 mi WNW 9.2 mph - N/A   Clear
3:53 AM 28.9 °F 20.4 °F 23.0 °F 78% 30.04 in 10.0 mi WNW 9.2 mph - N/A   Clear
4:53 AM 28.0 °F 19.3 °F 23.0 °F 81% 30.06 in 10.0 mi WNW 9.2 mph - N/A   Clear
5:53 AM 28.0 °F 19.3 °F 24.1 °F 85% 30.09 in 10.0 mi WNW 9.2 mph - N/A   Clear
6:53 AM 28.0 °F 20.0 °F 24.1 °F 85% 30.12 in 10.0 mi WNW 8.1 mph - N/A   Clear
7:53 AM 30.9 °F 22.2 °F 26.1 °F 82% 30.14 in 10.0 mi WNW 10.4 mph - N/A   Clear
8:53 AM 34.0 °F 26.6 °F 27.0 °F 75% 30.16 in 10.0 mi WNW 9.2 mph - N/A   Clear
9:53 AM 37.9 °F 32.1 °F 28.0 °F 68% 30.18 in 10.0 mi West 8.1 mph - N/A   Clear
10:53 AM 41.0 °F 34.3 °F 28.9 °F 62% 30.18 in 10.0 mi West 11.5 mph - N/A   Clear
11:53 AM 43.0 °F 37.2 °F 25.0 °F 49% 30.17 in 10.0 mi WNW 10.4 mph - N/A   Clear
12:53 PM 45.0 °F 39.3 °F 24.1 °F 44% 30.17 in 10.0 mi WSW 11.5 mph - N/A   Clear
1:53 PM 46.9 °F - 26.1 °F 44% 30.16 in 10.0 mi NW 8.1 mph - N/A   Clear
2:53 PM 46.9 °F - 26.1 °F 44% 30.14 in 10.0 mi West 6.9 mph - N/A   Partly Cloudy
3:53 PM 45.0 °F 39.3 °F 32.0 °F 60% 30.14 in 10.0 mi SE 11.5 mph - N/A   Clear
4:53 PM 43.0 °F 36.8 °F 32.0 °F 65% 30.14 in 10.0 mi SSE 11.5 mph - N/A   Clear
5:53 PM 41.0 °F 35.2 °F 28.9 °F 62% 30.13 in 10.0 mi South 9.2 mph - N/A   Clear
6:53 PM 37.9 °F 32.7 °F 27.0 °F 65% 30.13 in 10.0 mi South 6.9 mph - N/A   Clear
7:53 PM 34.0 °F 25.0 °F 25.0 °F 70% 30.14 in 10.0 mi South 12.7 mph - N/A   Clear
8:53 PM 32.0 °F 24.2 °F 25.0 °F 75% 30.15 in 10.0 mi South 9.2 mph - N/A   Clear
9:53 PM 30.9 °F 23.5 °F 26.1 °F 82% 30.14 in 10.0 mi South 8.1 mph - N/A   Clear
10:53 PM 28.9 °F 21.9 °F 26.1 °F 89% 30.14 in 10.0 mi SSW 6.9 mph - N/A   Clear
11:53 PM 28.0 °F 22.8 °F 25.0 °F 88% 30.13 in 10.0 mi SSW 4.6 mph - N/A   Clear